Wind_Speed
37 37 38 38 42 46 49 50 51 46 48 50 55 59 56 52 51 51 52 52 54 56 57 62 69 72 68 71 75 74 71 67 65 66 65 57 55 57 51 55 47 43 36 34
40 38 38 40 43 44 47 48 45 46 42 45 47 47 44 50 47 47 48 49 48 48 50 55 61 65 67 66 72 78 73 72 69 71 60 56 56 59 60 52 50 44 37 34
39 40 45 48 46 48 52 50 48 47 43 40 42 37 39 41 44 41 42 41 44 43 46 50 53 57 60 63 67 74 75 70 69 68 72 53 42 47 51 51 47 44 40 35
42 44 45 47 48 55 51 40 35 32 32 30 29 31 27 29 35 35 35 37 40 41 43 48 49 49 52 52 55 68 74 73 71 72 72 66 64 50 54 41 45 46 40 39
44 44 44 45 49 49 39 30 26 27 29 34 23 31 17 20 23 31 32 36 40 41 41 45 45 43 42 39 40 48 54 72 69 63 60 56 63 60 55 44 45 47 47 42
42 39 41 41 40 34 35 34 25 23 23 23 17 24 15 13 19 30 31 33 36 38 37 38 43 45 44 40 35 32 35 48 68 55 53 54 57 61 64 51 48 47 48 45
41 38 35 33 29 30 31 32 30 27 26 25 26 25 20 18 20 26 29 32 34 36 35 34 35 42 48 48 42 35 33 32 50 63 55 52 77 71 53 55 50 46 48 48
47 41 35 32 37 31 32 28 29 37 35 34 29 26 17 16 18 23 29 33 35 36 37 36 36 40 45 50 52 44 38 34 32 60 66 67 55 41 29 36 43 45 46 48
49 45 35 34 31 29 30 30 32 37 38 39 32 27 20 23 18 22 28 33 37 37 40 42 42 41 44 48 48 50 42 37 24 36 66 75 58 60 48 40 43 41 41 47
47 46 38 33 30 26 27 31 31 32 34 38 37 32 13 14 17 19 21 24 25 36 43 44 45 42 43 46 51 52 49 40 40 30 58 64 73 63 60 64 52 41 39 44
47 46 41 36 33 23 25 26 29 32 31 36 38 36 6 9 15 18 19 23 23 26 36 41 44 46 45 43 48 51 50 48 43 33 54 63 63 65 54 51 59 47 39 37
46 46 43 37 31 20 22 23 25 30 32 35 37 32 24 18 18 25 26 23 27 26 31 34 40 44 44 43 48 50 50 47 48 40 44 67 56 58 58 60 61 52 44 41
45 43 45 41 32 25 20 24 25 32 35 33 40 29 29 28 28 29 35 34 33 33 32 39 40 40 44 47 46 49 50 48 44 43 39 67 70 68 61 55 55 53 49 49
43 42 40 39 31 30 22 24 31 34 32 33 30 33 30 31 33 38 42 41 40 40 41 39 41 44 43 46 47 49 47 47 46 45 47 63 68 64 59 54 55 54 53 46
40 38 38 36 30 27 27 30 21 29 30 40 41 46 46 47 48 47 47 48 46 44 45 46 43 44 43 46 46 46 48 46 42 48 44 60 73 56 63 58 56 56 56 48
38 36 36 31 27 25 25 20 27 29 37 45 51 54 52 55 55 56 56 55 54 50 48 51 49 48 44 43 44 39 44 45 45 45 47 53 76 73 65 57 56 54 52 47
34 37 37 32 26 25 23 25 32 39 36 35 30 30 34 37 40 44 48 48 47 51 52 52 51 54 46 45 45 40 41 46 45 49 48 44 62 72 59 60 52 53 52 49
34 38 37 36 28 25 27 30 40 30 24 25 27 30 35 33 36 32 34 41 40 42 44 46 50 48 46 47 42 41 41 48 48 49 48 46 57 76 69 62 46 51 49 45
32 36 38 35 33 29 27 36 43 34 15 27 23 25 29 27 28 28 32 27 31 32 37 38 38 37 40 46 44 45 44 50 54 54 54 54 47 64 61 51 49 50 42 40
30 34 35 33 35 36 37 43 45 42 32 25 31 28 23 22 25 19 31 18 22 25 29 30 34 35 39 44 47 44 49 50 50 54 54 50 49 68 57 53 53 46 42 37
28 28 27 26 29 30 39 46 44 38 33 21 19 14 19 26 29 19 15 14 19 33 26 34 32 34 44 45 43 41 47 46 48 54 53 48 62 66 58 53 51 46 38 39
32 33 27 28 32 35 41 43 39 42 38 29 20 21 22 29 18 4 10 11 17 28 32 34 30 35 39 41 39 35 42 45 47 46 54 54 65 64 53 50 51 44 43 36
32 32 28 33 34 33 38 36 35 37 35 34 26 27 24 23 21 20 11 16 22 29 31 29 31 35 35 31 32 31 37 50 45 52 51 61 61 61 54 50 49 41 33 34
31 24 25 27 26 32 33 29 34 35 39 32 25 21 25 20 14 18 19 25 29 29 25 23 27 29 23 28 22 25 33 42 43 54 66 62 52 57 53 47 43 38 41 38
32 28 23 24 25 27 26 30 29 33 29 24 17 12 30 18 23 26 24 26 23 23 28 27 23 18 20 28 29 28 34 36 51 66 55 60 60 56 50 47 40 28 31 43
28 24 23 25 28 26 23 33 38 33 22 16 21 15 16 14 16 19 22 25 29 26 23 22 19 29 34 34 40 31 29 40 48 38 30 47 48 53 47 46 43 35 46 50
Wind_Direction
321 311 306 303 300 298 294 289 287 284 282 273 270 267 268 266 257 251 247 243 243 242 239 239 240 239 235 239 238 236 234 234 236 238 239 239 238 243 232 220 224 223 219 221
323 312 310 311 311 309 302 296 291 287 284 281 273 269 264 260 256 249 243 236 234 237 240 237 239 240 236 232 236 239 231 232 231 235 240 240 239 245 227 220 224 223 220 222
322 312 310 309 310 307 302 297 293 289 284 284 284 273 260 252 252 245 236 225 225 229 231 235 238 239 237 235 229 233 237 230 231 229 228 224 231 196 218 220 225 229 226 226
319 315 314 316 313 307 313 308 301 293 287 289 294 279 263 252 253 244 225 222 224 231 232 229 234 238 239 238 240 233 230 235 231 223 235 229 226 242 235 211 224 226 226 228
327 322 319 318 308 313 322 318 309 295 294 292 311 288 269 244 245 218 221 225 227 230 230 227 231 240 241 240 243 245 238 230 235 238 236 228 227 229 208 216 224 229 232 226
331 331 323 323 316 319 315 316 312 307 305 305 308 302 276 262 220 220 231 237 238 236 235 234 233 237 246 240 242 251 251 237 227 231 225 220 214 214 219 223 223 225 231 229
330 328 328 326 313 311 306 311 310 310 308 303 299 303 309 275 253 230 233 235 244 249 248 244 237 235 237 244 244 247 253 245 229 219 214 214 212 210 207 218 219 219 226 230
332 329 331 323 310 300 307 306 304 304 308 307 306 309 308 296 257 246 237 240 246 247 248 246 236 231 233 237 243 243 242 240 233 219 220 222 220 199 207 210 213 217 225 236
328 331 334 327 316 298 296 293 297 298 300 301 301 297 289 297 264 248 241 240 239 237 236 239 239 232 227 229 236 238 232 228 227 221 220 220 235 232 232 232 231 230 234 238
328 330 332 331 320 296 296 297 301 307 304 300 302 314 300 260 254 245 242 242 244 233 227 231 235 235 230 226 228 234 231 227 220 226 212 218 224 233 241 237 233 228 234 236
325 327 330 332 329 312 302 299 302 301 295 294 308 313 292 294 247 234 259 252 241 237 231 233 236 236 234 229 228 231 231 228 226 228 217 206 219 213 221 225 223 226 225 226
324 325 327 331 330 314 305 312 310 301 299 301 306 295 319 295 256 243 239 247 251 241 232 232 234 236 240 234 225 225 227 228 226 217 226 205 214 208 214 222 218 221 224 229
323 327 327 332 338 323 318 314 306 300 298 308 295 305 303 288 276 259 250 252 248 248 243 231 228 232 233 237 232 226 223 223 221 214 223 214 215 202 208 207 211 223 226 226
320 325 324 329 331 320 324 314 305 304 311 304 300 298 293 284 269 264 261 254 247 245 242 234 232 228 233 234 231 230 226 220 217 214 220 213 207 191 215 207 216 220 224 223
319 324 323 332 325 322 324 307 311 309 308 300 299 287 287 281 272 262 256 253 247 240 239 238 239 235 230 233 235 227 225 223 216 212 218 212 207 198 215 206 209 218 220 229
322 325 327 339 319 319 320 304 316 310 303 294 285 286 285 279 271 267 263 258 252 246 237 234 235 235 229 227 227 226 217 215 214 207 215 215 209 204 203 203 208 216 222 227
325 329 331 339 328 325 318 314 313 311 309 298 303 295 289 294 288 275 267 264 258 251 245 239 233 228 230 224 222 221 210 207 206 210 216 215 204 207 204 204 204 213 216 221
333 332 332 335 331 340 330 319 321 312 317 297 309 311 295 290 292 289 281 257 244 247 233 231 227 228 225 217 214 213 206 200 202 203 213 215 208 202 206 197 204 208 216 228
334 332 334 329 332 333 321 329 334 318 322 297 308 323 309 299 287 291 274 263 246 244 222 215 216 211 208 206 206 205 201 199 201 208 215 215 219 203 196 193 203 207 215 226
334 337 334 329 325 334 336 335 333 329 320 306 306 307 316 332 303 285 268 250 235 214 208 203 201 199 197 195 198 197 197 196 198 202 206 213 206 195 200 196 203 207 219 221
338 335 329 324 331 340 337 335 332 334 332 315 332 0 339 340 324 298 251 213 203 203 197 177 180 188 189 191 194 197 199 198 199 201 196 195 196 194 192 198 203 210 215 222
339 337 341 340 338 342 341 335 336 336 334 322 299 10 5 356 0 45 151 196 177 166 166 170 178 185 189 190 198 203 202 196 201 194 186 195 192 197 190 198 203 209 215 227
344 339 346 342 334 340 341 336 342 347 347 351 353 31 30 38 52 62 93 121 140 148 160 167 177 181 185 197 203 218 201 203 197 192 184 180 183 187 192 195 201 208 216 231
342 336 346 339 340 341 343 349 351 350 357 338 10 39 47 54 81 71 105 127 129 142 149 160 171 174 190 205 202 193 195 185 174 180 169 166 183 187 190 195 202 210 215 194
336 337 344 344 341 353 353 354 349 348 14 11 7 26 33 60 82 98 112 118 122 130 135 146 166 182 186 172 168 166 164 144 165 159 172 170 182 192 190 188 201 208 227 170
332 334 347 353 350 1 358 359 3 16 16 49 48 59 61 82 106 119 122 125 127 135 148 162 156 139 144 148 155 157 157 155 151 150 169 167 177 191 195 188 208 185 167 186
Height
5732 5726 5718 5715 5709 5702 5696 5692 5689 5693 5685 5683 5681 5680 5687 5687 5689 5691 5695 5699 5703 5707 5714 5718 5721 5730 5740 5746 5754 5765 5779 5788 5794 5800 5808 5819 5827 5831 5834 5839 5845 5849 5852 5857
5724 5717 5711 5705 5698 5692 5683 5677 5677 5672 5670 5665 5663 5667 5674 5666 5671 5674 5679 5684 5689 5694 5698 5704 5706 5712 5724 5732 5738 5744 5763 5773 5782 5787 5799 5810 5816 5818 5824 5833 5838 5842 5844 5849
5716 5709 5702 5695 5689 5682 5673 5665 5662 5658 5656 5655 5649 5656 5653 5657 5654 5660 5665 5671 5676 5683 5686 5689 5692 5699 5708 5716 5724 5730 5742 5759 5769 5778 5785 5796 5801 5807 5817 5825 5831 5838 5841 5844
5709 5701 5692 5685 5675 5666 5661 5655 5650 5647 5644 5643 5642 5639 5643 5645 5645 5648 5655 5661 5667 5670 5673 5678 5682 5688 5696 5706 5709 5718 5728 5739 5752 5765 5773 5786 5796 5803 5814 5818 5824 5829 5834 5837
5700 5690 5682 5676 5664 5657 5652 5647 5644 5641 5640 5635 5640 5630 5634 5636 5638 5642 5647 5652 5654 5658 5663 5670 5675 5680 5688 5696 5701 5705 5716 5727 5736 5749 5762 5772 5783 5795 5801 5805 5813 5820 5824 5828
5693 5683 5673 5665 5657 5652 5646 5641 5639 5636 5633 5632 5632 5628 5627 5630 5633 5636 5640 5641 5643 5649 5658 5665 5671 5675 5679 5690 5696 5700 5707 5716 5729 5742 5752 5762 5770 5779 5786 5791 5801 5809 5817 5821
5689 5680 5669 5659 5653 5648 5643 5638 5632 5630 5628 5627 5625 5623 5622 5624 5626 5630 5633 5636 5637 5642 5649 5656 5663 5668 5673 5677 5688 5696 5700 5707 5718 5733 5738 5748 5756 5764 5765 5783 5790 5800 5808 5815
5678 5674 5665 5656 5645 5642 5638 5634 5631 5623 5621 5620 5619 5617 5618 5618 5621 5622 5625 5628 5629 5633 5639 5645 5652 5658 5663 5668 5673 5685 5692 5698 5706 5720 5732 5735 5737 5741 5754 5770 5781 5790 5797 5804
5668 5665 5660 5649 5641 5635 5632 5631 5627 5620 5616 5611 5612 5613 5614 5611 5613 5613 5614 5617 5619 5622 5627 5633 5641 5648 5653 5658 5663 5671 5683 5690 5697 5704 5717 5729 5736 5743 5756 5770 5778 5784 5790 5796
5661 5653 5651 5644 5637 5631 5627 5624 5620 5615 5609 5603 5602 5602 5604 5604 5606 5606 5607 5609 5610 5612 5616 5621 5628 5635 5642 5647 5654 5659 5669 5680 5689 5694 5704 5717 5729 5739 5748 5764 5773 5779 5785 5789
5651 5647 5643 5636 5629 5624 5620 5617 5613 5608 5605 5597 5593 5594 5597 5601 5600 5601 5601 5602 5604 5605 5607 5612 5616 5623 5630 5637 5643 5650 5658 5669 5677 5686 5692 5705 5717 5728 5742 5752 5764 5773 5778 5783
5645 5636 5631 5629 5624 5618 5614 5610 5606 5600 5597 5590 5584 5582 5593 5594 5594 5595 5594 5594 5595 5598 5600 5603 5608 5614 5618 5625 5632 5638 5646 5657 5668 5676 5680 5689 5684 5715 5728 5743 5754 5763 5771 5776
5638 5630 5621 5617 5616 5609 5607 5603 5599 5593 5587 5585 5576 5579 5580 5579 5582 5583 5582 5584 5585 5587 5589 5593 5596 5602 5607 5613 5620 5627 5635 5646 5656 5665 5670 5677 5687 5697 5720 5732 5743 5752 5760 5767
5628 5624 5618 5613 5609 5600 5599 5597 5590 5583 5579 5573 5573 5566 5570 5568 5568 5567 5566 5569 5570 5573 5575 5580 5583 5588 5594 5601 5607 5618 5626 5634 5646 5656 5662 5668 5679 5690 5712 5721 5735 5743 5750 5758
5624 5620 5613 5608 5601 5596 5591 5585 5584 5578 5574 5563 5561 5554 5555 5551 5547 5546 5547 5549 5554 5558 5561 5566 5569 5575 5582 5588 5595 5605 5617 5627 5637 5648 5653 5658 5674 5680 5700 5713 5725 5734 5741 5749
5619 5613 5608 5605 5596 5589 5586 5580 5576 5572 5565 5554 5544 5538 5534 5527 5527 5527 5528 5529 5534 5540 5545 5549 5556 5562 5570 5577 5584 5593 5604 5617 5628 5640 5647 5653 5665 5676 5693 5705 5717 5724 5734 5742
5613 5606 5599 5595 5588 5584 5581 5574 5567 5559 5549 5538 5534 5529 5521 5515 5507 5504 5503 5507 5513 5519 5525 5533 5540 5547 5556 5565 5573 5584 5594 5606 5618 5630 5637 5646 5656 5668 5683 5697 5710 5716 5726 5737
5607 5599 5592 5586 5581 5579 5573 5565 5555 5546 5540 5532 5524 5517 5509 5502 5497 5493 5486 5487 5491 5495 5503 5513 5523 5533 5545 5554 5563 5573 5584 5597 5609 5621 5628 5638 5650 5660 5677 5691 5698 5708 5720 5731
5603 5596 5588 5579 5574 5573 5566 5556 5546 5536 5535 5522 5514 5507 5500 5491 5481 5481 5474 5475 5479 5483 5489 5499 5511 5523 5533 5544 5555 5565 5575 5586 5597 5608 5621 5633 5641 5654 5668 5681 5691 5704 5719 5729
5601 5592 5585 5578 5570 5561 5556 5548 5539 5529 5523 5515 5507 5499 5492 5482 5473 5469 5462 5467 5469 5474 5483 5494 5505 5516 5527 5538 5548 5558 5568 5577 5588 5600 5613 5626 5637 5650 5663 5676 5689 5702 5713 5725
5597 5591 5584 5578 5568 5563 5552 5544 5534 5525 5517 5510 5502 5491 5484 5473 5462 5455 5454 5459 5463 5471 5482 5492 5503 5514 5523 5534 5546 5555 5564 5572 5581 5592 5605 5617 5629 5645 5660 5675 5689 5701 5710 5718
5591 5584 5579 5572 5563 5557 5550 5540 5530 5521 5511 5502 5497 5488 5481 5468 5458 5452 5455 5459 5464 5474 5484 5495 5504 5513 5523 5533 5540 5549 5557 5567 5575 5586 5600 5612 5627 5643 5660 5676 5685 5696 5705 5713
5589 5582 5577 5570 5562 5556 5548 5537 5530 5518 5508 5500 5494 5486 5481 5472 5467 5464 5463 5465 5471 5480 5490 5500 5505 5513 5524 5531 5537 5541 5547 5560 5569 5582 5596 5610 5629 5648 5663 5673 5683 5694 5703 5708
5588 5582 5576 5570 5564 5555 5546 5538 5529 5519 5511 5502 5496 5490 5485 5481 5478 5475 5476 5479 5484 5490 5498 5505 5511 5520 5526 5528 5535 5540 5547 5560 5567 5578 5593 5614 5634 5648 5660 5671 5681 5692 5703 5709
5585 5578 5574 5568 5561 5554 5545 5538 5529 5520 5513 5503 5499 5498 5494 5492 5488 5486 5487 5490 5493 5498 5504 5510 5515 5520 5525 5529 5536 5543 5552 5556 5568 5582 5596 5610 5629 5645 5658 5673 5680 5687 5695 5708
5584 5577 5570 5563 5558 5552 5545 5538 5530 5521 5515 5508 5504 5505 5504 5502 5499 5497 5496 5498 5501 5504 5509 5515 5518 5523 5530 5535 5542 5550 5559 5563 5572 5579 5592 5614 5629 5644 5658 5668 5680 5686 5695 5703